Time,TemperatureF,DewpointF,PressureIn,WindDirection,WindDirectionDegrees,WindSpeedMPH,WindSpeedGustMPH,Humidity,HourlyPrecipIn,Conditions,Clouds,dailyrainin,SoftwareType,DateUTC
2013-07-22 00:01:00,75.0,71.0,29.91,East,94,2.0,2.0,87,0.00,,,0.00,,2013-07-22 04:01:00,
2013-07-22 00:12:00,75.0,71.0,29.91,ESE,117,1.0,2.0,88,0.00,,,0.00,,2013-07-22 04:12:00,
2013-07-22 00:22:00,75.0,72.0,29.91,ESE,121,1.0,2.0,89,0.00,,,0.00,,2013-07-22 04:22:00,
2013-07-22 00:33:00,75.0,72.0,29.91,SE,127,1.0,2.0,89,0.00,,,0.00,,2013-07-22 04:33:00,
2013-07-22 00:43:00,74.0,71.0,29.90,SE,125,2.0,2.0,90,0.00,,,0.00,,2013-07-22 04:43:00,
2013-07-22 01:02:00,74.0,71.0,29.89,SE,124,2.0,4.0,91,0.00,,,0.00,,2013-07-22 05:02:00,
2013-07-22 01:11:00,74.0,71.0,29.90,ESE,117,2.0,3.0,90,0.00,,,0.00,,2013-07-22 05:11:00,
2013-07-22 01:22:00,74.0,71.0,29.90,ESE,110,2.0,3.0,90,0.00,,,0.00,,2013-07-22 05:22:00,
2013-07-22 01:32:00,74.0,71.0,29.89,ESE,122,2.0,3.0,89,0.00,,,0.00,,2013-07-22 05:32:00,
2013-07-22 01:43:00,73.0,70.0,29.89,ESE,113,0.0,2.0,90,0.00,,,0.00,,2013-07-22 05:43:00,
2013-07-22 01:52:00,74.0,71.0,29.89,East,90,2.0,2.0,89,0.00,,,0.00,,2013-07-22 05:52:00,
2013-07-22 02:01:00,74.0,71.0,29.89,East,83,4.0,4.0,89,0.00,,,0.00,,2013-07-22 06:01:00,
2013-07-22 02:11:00,73.0,70.0,29.89,East,79,3.0,5.0,91,0.00,,,0.00,,2013-07-22 06:11:00,
2013-07-22 02:22:00,73.0,70.0,29.89,East,94,2.0,5.0,91,0.00,,,0.00,,2013-07-22 06:22:00,
2013-07-22 02:33:00,73.0,71.0,29.88,East,94,3.0,5.0,92,0.00,,,0.00,,2013-07-22 06:33:00,
2013-07-22 02:43:00,73.0,71.0,29.88,East,82,3.0,5.0,92,0.00,,,0.00,,2013-07-22 06:43:00,
2013-07-22 02:52:00,73.0,70.0,29.88,East,89,5.0,6.0,91,0.00,,,0.00,,2013-07-22 06:52:00,
2013-07-22 03:01:00,73.0,70.0,29.88,East,98,3.0,6.0,91,0.00,,,0.00,,2013-07-22 07:01:00,
2013-07-22 03:12:00,73.0,70.0,29.87,East,89,3.0,6.0,91,0.00,,,0.00,,2013-07-22 07:12:00,
2013-07-22 03:22:00,73.0,70.0,29.86,East,96,4.0,6.0,91,0.00,,,0.00,,2013-07-22 07:22:00,
2013-07-22 03:33:00,73.0,70.0,29.87,ESE,104,4.0,6.0,91,0.00,,,0.00,,2013-07-22 07:33:00,
2013-07-22 03:43:00,72.0,70.0,29.87,SE,136,3.0,5.0,92,0.00,,,0.00,,2013-07-22 07:43:00,
2013-07-22 03:52:00,72.0,70.0,29.88,SE,142,2.0,5.0,92,0.00,,,0.00,,2013-07-22 07:52:00,
2013-07-22 04:02:00,72.0,70.0,29.87,SE,140,1.0,5.0,93,0.00,,,0.00,,2013-07-22 08:02:00,
2013-07-22 04:11:00,72.0,70.0,29.87,SE,131,2.0,4.0,95,0.00,,,0.00,,2013-07-22 08:11:00,
2013-07-22 04:22:00,71.0,69.0,29.87,SSE,155,6.0,9.0,92,0.01,,,0.01,,2013-07-22 08:22:00,
2013-07-22 04:32:00,70.0,68.0,29.86,SE,127,5.0,12.0,92,0.02,,,0.02,,2013-07-22 08:32:00,
2013-07-22 04:43:00,70.0,68.0,29.87,ESE,113,2.0,9.0,93,0.03,,,0.03,,2013-07-22 08:43:00,
2013-07-22 04:52:00,69.0,67.0,29.87,ESE,119,3.0,7.0,94,0.04,,,0.04,,2013-07-22 08:52:00,
2013-07-22 05:02:00,69.0,68.0,29.88,East,101,1.0,3.0,95,0.06,,,0.06,,2013-07-22 09:02:00,
2013-07-22 05:11:00,69.0,68.0,29.87,ESE,122,6.0,10.0,96,0.07,,,0.08,,2013-07-22 09:11:00,
2013-07-22 05:22:00,70.0,69.0,29.88,ESE,110,8.0,12.0,96,0.11,,,0.12,,2013-07-22 09:22:00,
2013-07-22 05:33:00,69.0,68.0,29.88,SE,129,8.0,15.0,95,0.15,,,0.17,,2013-07-22 09:33:00,
2013-07-22 05:42:00,69.0,68.0,29.88,ESE,122,7.0,15.0,96,0.18,,,0.21,,2013-07-22 09:42:00,
2013-07-22 05:52:00,69.0,67.0,29.88,SSE,148,8.0,16.0,93,0.21,,,0.25,,2013-07-22 09:52:00,
2013-07-22 06:02:00,68.0,66.0,29.88,ESE,112,8.0,13.0,94,0.22,,,0.28,,2013-07-22 10:02:00,
2013-07-22 06:11:00,68.0,66.0,29.88,ESE,117,6.0,10.0,94,0.21,,,0.29,,2013-07-22 10:11:00,
2013-07-22 06:22:00,68.0,67.0,29.88,ESE,117,4.0,7.0,95,0.19,,,0.31,,2013-07-22 10:22:00,
2013-07-22 06:32:00,67.0,66.0,29.87,ESE,102,1.0,5.0,95,0.15,,,0.32,,2013-07-22 10:32:00,
2013-07-22 06:43:00,67.0,66.0,29.88,ESE,102,0.0,0.0,95,0.13,,,0.34,,2013-07-22 10:43:00,
2013-07-22 06:52:00,67.0,66.0,29.88,East,101,0.0,1.0,96,0.10,,,0.35,,2013-07-22 10:52:00,
2013-07-22 07:02:00,67.0,66.0,29.88,East,101,0.0,1.0,96,0.08,,,0.36,,2013-07-22 11:02:00,
2013-07-22 07:11:00,67.0,66.0,29.88,NNE,30,0.0,1.0,96,0.08,,,0.37,,2013-07-22 11:11:00,
2013-07-22 07:23:00,67.0,66.0,29.88,ENE,75,0.0,2.0,96,0.06,,,0.37,,2013-07-22 11:23:00,
2013-07-22 07:32:00,67.0,66.0,29.89,ESE,109,0.0,2.0,96,0.06,,,0.38,,2013-07-22 11:32:00,
2013-07-22 07:43:00,67.0,66.0,29.89,ENE,75,2.0,4.0,96,0.07,,,0.41,,2013-07-22 11:43:00,
2013-07-22 07:52:00,67.0,66.0,29.89,East,96,2.0,4.0,97,0.09,,,0.44,,2013-07-22 11:52:00,
2013-07-22 08:02:00,67.0,66.0,29.88,East,82,3.0,4.0,97,0.09,,,0.45,,2013-07-22 12:02:00,
2013-07-22 08:11:00,67.0,66.0,29.88,ENE,70,6.0,8.0,97,0.11,,,0.48,,2013-07-22 12:11:00,
2013-07-22 08:22:00,67.0,66.0,29.87,ENE,66,8.0,10.0,97,0.11,,,0.48,,2013-07-22 12:22:00,
2013-07-22 08:33:00,67.0,66.0,29.87,East,92,8.0,13.0,96,0.10,,,0.48,,2013-07-22 12:33:00,
2013-07-22 08:43:00,67.0,66.0,29.88,ENE,67,5.0,13.0,95,0.07,,,0.49,,2013-07-22 12:43:00,
2013-07-22 08:53:00,67.0,66.0,29.88,ENE,75,5.0,10.0,95,0.05,,,0.49,,2013-07-22 12:53:00,
2013-07-22 09:01:00,66.0,65.0,29.88,NE,55,5.0,10.0,96,0.03,,,0.49,,2013-07-22 13:01:00,
2013-07-22 09:11:00,66.0,65.0,29.88,ENE,70,7.0,10.0,96,0.03,,,0.50,,2013-07-22 13:11:00,
2013-07-22 09:43:00,67.0,66.0,29.86,ENE,68,5.0,9.0,97,0.04,,,0.53,,2013-07-22 13:43:00,
2013-07-22 09:53:00,67.0,66.0,29.87,NE,41,2.0,11.0,97,0.04,,,0.53,,2013-07-22 13:53:00,
2013-07-22 10:32:00,68.0,67.0,29.87,NNE,33,2.0,5.0,96,0.01,,,0.53,,2013-07-22 14:32:00,
2013-07-22 10:53:00,69.0,68.0,29.86,ENE,77,3.0,6.0,95,0.00,,,0.53,,2013-07-22 14:53:00,
2013-07-22 11:52:00,72.0,70.0,29.85,ESE,108,6.0,9.0,92,0.00,,,0.53,,2013-07-22 15:52:00,
2013-07-22 12:43:00,73.0,69.0,29.86,East,79,5.0,10.0,88,0.00,,,0.53,,2013-07-22 16:43:00,
2013-07-22 13:43:00,74.0,68.0,29.85,ENE,72,4.0,6.0,83,0.00,,,0.53,,2013-07-22 17:43:00,
2013-07-22 13:52:00,74.0,68.0,29.85,SSE,148,2.0,6.0,83,0.00,,,0.53,,2013-07-22 17:52:00,
2013-07-22 17:43:00,78.0,71.0,29.80,ENE,66,2.0,3.0,78,0.00,,,0.53,,2013-07-22 21:43:00,
2013-07-22 18:43:00,80.0,71.0,29.79,ENE,76,3.0,5.0,74,0.00,,,0.53,,2013-07-22 22:43:00,
2013-07-22 19:01:00,82.0,69.0,29.79,NNE,14,0.0,2.0,65,0.00,,,0.53,,2013-07-22 23:01:00,
2013-07-22 19:32:00,81.0,69.0,29.78,North,11,1.0,3.0,66,0.00,,,0.53,,2013-07-22 23:32:00,
2013-07-22 19:42:00,80.0,68.0,29.78,NW,320,1.0,3.0,68,0.00,,,0.53,,2013-07-22 23:42:00,
2013-07-22 19:52:00,80.0,70.0,29.78,NNE,31,1.0,2.0,71,0.00,,,0.53,,2013-07-22 23:52:00,
2013-07-22 20:01:00,79.0,69.0,29.78,NNE,14,0.0,1.0,71,0.00,,,0.53,,2013-07-23 00:01:00,
2013-07-22 20:12:00,80.0,71.0,29.78,NNE,14,0.0,1.0,75,0.00,,,0.53,,2013-07-23 00:12:00,
2013-07-22 20:43:00,79.0,72.0,29.78,NNE,14,0.0,0.0,78,0.00,,,0.53,,2013-07-23 00:43:00,
2013-07-22 20:52:00,78.0,71.0,29.78,NNE,14,0.0,0.0,80,0.00,,,0.53,,2013-07-23 00:52:00,
2013-07-22 21:01:00,76.0,72.0,29.78,NNE,14,0.0,0.0,86,0.00,,,0.53,,2013-07-23 01:01:00,
2013-07-22 21:43:00,72.0,70.0,29.78,NNE,14,0.0,0.0,92,0.00,,,0.53,,2013-07-23 01:43:00,
2013-07-22 22:02:00,72.0,70.0,29.79,NNE,14,0.0,0.0,93,0.00,,,0.53,,2013-07-23 02:02:00,
2013-07-22 23:43:00,68.0,67.0,29.81,SSE,156,0.0,0.0,96,0.00,,,0.53,,2013-07-23 03:43:00,